Location: ???? ???? ?????
(31.2680°N, 31.7283°E)
Time: 09:58:14
(UTC+00:00)

Milstar 3 - Pass Details

Date: 13 July 2020
Orbit: 1101 x 5144 km, 28.2° (Epoch: 13 July)

Event Time Altitude Azimuth Distance (km) Brightness Sun altitude
Rises 17:53:55 0° 274° (W) 4,483 7.1 -11.0°
Reaches altitude 10° 17:56:19 10° 271° (W) 3,741 6.5 -11.4°
Maximum altitude 18:06:06 71° 189° (S) 2,379 4.4 -13.1°
Enters shadow 18:23:02 15° 111° (ESE) 6,280 6.0 -16.0°
